[[{"header":{"parameterUnit":"m.s-1","parameterCategory":2,"la1":30.2991,"la2":30.254,"lo1":-89.0895,"lo2":-89.0444,"dy":0.0017,"dx":0.0017,"nx":28,"ny":28,"refTime":"2023-11-16T03:00:00:Z","depth":"0","parameterNumber":2,"parameterNumberName":"U-component_of_CURRENTS"},"data":[0,0,0,0,0,0,0,0,0,0,0,0,0,0,0,0,0,0,0,0,0,0,0,0,0,0,0,0,0,0,0,0,0,0,0,0,0,0,0,0,0,0,0,0,0,0,0,0,0,0,0,0,0,0,0,0,0,0,0.1894,0.1894,0,0.1876,0.1876,0.1875,0.1841,0.1841,0.184,0.184,0.1801,0.18,0.1799,0,0,0,0,0,0,0,0,0,0,0,0,0,0.1904,0.1904,0.1894,0.1894,0.1894,0.1876,0.1876,0.1875,0.1841,0.1841,0.184,0.184,0.1801,0.18,0.1799,0,0,0,0,0,0,0,0,0,0,0,0,0,0.1891,0.1904,0.1894,0.1878,0.1876,0.1876,0.1876,0.1875,0.1841,0.1841,0.184,0.184,0.1801,0.18,0.1799,0.1804,0,0,0.1796,0.1796,0,0,0,0,0,0,0,0,0.1892,0.1891,0.188,0.1879,0.1877,0.1863,0.1865,0.1851,0.1842,0.1851,0.184,0.1839,0.1822,0.1819,0.1813,0.1803,0.1801,0.1796,0.1795,0.1795,0.1795,0,0,0,0,0,0,0,0.1893,0.1891,0.1884,0.188,0.1878,0.1873,0.187,0.1862,0.1838,0.1851,0.1849,0.1852,0.182,0.1814,0.1812,0.18,0.1796,0.1795,0.1794,0.1794,0.1811,0.1812,0,0,0,0,0,0,0.1902,0.1892,0.1885,0.1884,0.1887,0.1873,0.187,0.1866,0.1838,0.1834,0.1852,0.185,0.1816,0.1813,0.181,0.1826,0.1795,0.1794,0.1793,0.181,0.1811,0.1812,0,0,0,0,0,0,0.1902,0.1901,0.1886,0.189,0.1888,0.1874,0.1869,0.1866,0.186,0.184,0.1835,0.1851,0.1816,0.1812,0.1811,0.1824,0.1793,0.1792,0.1809,0.181,0.1812,0.185,0,0,0,0,0,0,0.1902,0.1901,0.1901,0.1891,0.1889,0.1887,0.187,0.1866,0.1864,0.1861,0.1838,0.1833,0.1815,0.1813,0.181,0.1822,0.1792,0.1807,0.1809,0.1811,0.1847,0.1853,0.1857,0,0,0,0,0,0.1902,0.1904,0.1901,0.1901,0.1889,0.1888,0.1885,0.1871,0.1865,0.1864,0.1854,0.1834,0.1823,0.1813,0.1809,0.1821,0.1806,0.1809,0.1811,0.1845,0.1852,0.1857,0,0,0,0,0,0,0.1906,0.1901,0.1897,0.1897,0.1895,0.1883,0.1882,0.1877,0.1868,0.1865,0.1844,0.184,0.1847,0.1832,0.182,0.1834,0.1813,0.1815,0.184,0.1846,0.1851,0.1868,0.1791,0,0,0,0,0,0.191,0.1909,0.1905,0.1905,0.1905,0.1896,0.1895,0.1887,0.188,0.1874,0.1862,0.1853,0.1855,0.1848,0.1844,0.1847,0.185,0.1855,0.186,0.1864,0.1877,0.1897,0.1904,0.182,0.182,0.182,0,0,0.1911,0.1909,0.1908,0.1906,0.1902,0.1905,0.1893,0.1892,0.1899,0.1873,0.1876,0.1871,0.1862,0.1868,0.1869,0.1855,0.189,0.1867,0.1871,0.1882,0.19,0.1908,0.1915,0.1822,0.1822,0.1821,0,0,0.1915,0.1912,0.1914,0.1916,0.1917,0.1913,0.1917,0.1911,0.1911,0.1915,0.1907,0.1916,0.1901,0.1906,0.1905,0.1937,0.192,0.1931,0.1962,0.198,0.1987,0.1993,0.2006,0.2013,0.1927,0.1927,0.1927,0,0.1919,0.1918,0.1915,0.1921,0.1925,0.192,0.1926,0.1929,0.1925,0.1933,0.192,0.1932,0.1924,0.1946,0.196,0.1949,0.1952,0.1937,0.1986,0.1993,0.1998,0.2009,0.2017,0.193,0.1929,0.1929,0.1929,0,0.1924,0.1927,0.1929,0.1934,0.194,0.1942,0.1951,0.1958,0.1958,0.1962,0.1984,0.1982,0.1987,0.199,0.1984,0.2024,0.201,0.1994,0.197,0.2009,0.2018,0.2025,0.1933,0.1932,0.1931,0.1931,0,0,0.192,0.193,0.1931,0.1933,0.1946,0.1947,0.1969,0.1984,0.2002,0.2006,0.203,0.2046,0.2047,0.2049,0.2046,0.2068,0.2113,0.2051,0.2051,0.2061,0.215,0.211,0.2113,0.21,0.2101,0.2103,0.2139,0,0.1922,0.1931,0.194,0.1949,0.1952,0.1964,0.1986,0.2004,0.2019,0.2043,0.2059,0.2079,0.2068,0.2075,0.2097,0.2114,0.2133,0.2104,0.2113,0.2113,0.2071,0.212,0.2017,0.2038,0.2146,0.2147,0.2148,0,0.1922,0.1928,0.1936,0.1953,0.1957,0.1967,0.1997,0.2016,0.2058,0.2077,0.2103,0.2111,0.2153,0.2134,0.2181,0.2161,0.2164,0.2173,0.2173,0.2129,0.2086,0.2018,0.2046,0.1991,0.2158,0.2157,0.2157,0,0.1907,0.1923,0.1927,0.1932,0.1955,0.1966,0.1981,0.2022,0.2044,0.21,0.2118,0.2163,0.2182,0.2205,0.222,0.2202,0.2268,0.2238,0.2205,0.2201,0.2114,0.21,0.2089,0.2274,0.2274,0.2273,0.2273,0,0.1898,0.19,0.1919,0.1918,0.1929,0.1955,0.1979,0.2009,0.206,0.209,0.2127,0.216,0.2201,0.2232,0.2242,0.2251,0.2281,0.2229,0.2216,0.2123,0.2111,0.2057,0.2015,0.2275,0.2275,0.2274,0.2274,0,0.1872,0.1885,0.1886,0.191,0.1918,0.1923,0.1962,0.1984,0.2038,0.208,0.2097,0.2168,0.2217,0.2246,0.2295,0.2269,0.2212,0.2279,0.2168,0.2141,0.204,0.2003,0.1923,0.1846,0.2246,0.2245,0.2245,0,0.1855,0.1855,0.1869,0.1872,0.1879,0.1896,0.1912,0.1967,0.1992,0.208,0.2095,0.2164,0.2203,0.226,0.2252,0.2263,0.2188,0.2153,0.2102,0.2038,0.1987,0.1919,0.1855,0.2001,0.1998,0.1996,0.1995,0,0.1828,0.1833,0.1838,0.1839,0.1848,0.1856,0.1882,0.19,0.1968,0.2002,0.2067,0.2112,0.2175,0.2148,0.2159,0.2151,0.2024,0.2109,0.207,0.1825,0.1722,0.164,0.1976,0.1976,0.1978,0.198,0.1981,0.1981,0.181,0.1803,0.181,0.1802,0.181,0.181,0.1796,0.1834,0.1859,0.1889,0.1986,0.2015,0.2027,0.2036,0.2013,0.1909,0.1907,0.1825,0.1796,0.1744,0.1632,0.1932,0.1898,0.19,0.1901,0.1902,0.1903,0,0.1782,0.1777,0.1775,0.1756,0.1735,0.1757,0.1766,0.1743,0.1737,0.1795,0.1827,0.1834,0.1796,0.1799,0.1707,0.1603,0.1532,0.1548,0.1427,0.1387,0.1682,0.1633,0.1507,0.1507,0.1507,0.1507,0.1507,0.1507,0.1771,0.1749,0.1736,0.1682,0.1667,0.1616,0.1604,0.1585,0.1602,0.1578,0.1573,0.159,0.1615,0.1527,0.1402,0.1366,0.1243,0.1179,0.1182,0.1395,0.1419,0.1442,0.1389,0.1213,0.1213,0.0829,0.0825,0.0823]},{"header":{"parameterUnit":"m.s-1","parameterCategory":2,"la1":30.2991,"la2":30.254,"lo1":-89.0895,"lo2":-89.0444,"dy":0.0017,"dx":0.0017,"nx":28,"ny":28,"refTime":"2023-11-16T03:00:00:Z","depth":"0","parameterNumber":3,"parameterNumberName":"V-component_of_CURRENTS"},"data":[0,0,0,0,0,0,0,0,0,0,0,0,0,0,0,0,0,0,0,0,0,0,0,0,0,0,0,0,0,0,0,0,0,0,0,0,0,0,0,0,0,0,0,0,0,0,0,0,0,0,0,0,0,0,0,0,0,0,-0.0143,-0.0143,0,-0.0162,-0.0162,-0.0162,-0.0172,-0.0172,-0.0172,-0.0172,-0.0192,-0.0192,-0.0193,0,0,0,0,0,0,0,0,0,0,0,0,0,-0.0132,-0.0132,-0.0143,-0.0143,-0.0144,-0.0162,-0.0162,-0.0162,-0.0172,-0.0172,-0.0172,-0.0172,-0.0191,-0.0192,-0.0193,0,0,0,0,0,0,0,0,0,0,0,0,0,-0.0143,-0.0132,-0.0143,-0.015,-0.0151,-0.0162,-0.0162,-0.0162,-0.0172,-0.0172,-0.0172,-0.0172,-0.0191,-0.0192,-0.0193,-0.02,0,0,-0.0196,-0.0196,0,0,0,0,0,0,0,0,-0.0142,-0.0143,-0.0149,-0.0149,-0.015,-0.0164,-0.0165,-0.0175,-0.0172,-0.0165,-0.0172,-0.0172,-0.0182,-0.0184,-0.0188,-0.0201,-0.0202,-0.0196,-0.0196,-0.0196,-0.0197,0,0,0,0,0,0,0,-0.0141,-0.0143,-0.0151,-0.0149,-0.015,-0.0157,-0.0159,-0.0167,-0.0174,-0.0165,-0.0166,-0.0167,-0.0183,-0.0187,-0.0189,-0.0202,-0.0196,-0.0196,-0.0197,-0.0197,-0.0216,-0.0216,0,0,0,0,0,0,-0.0137,-0.0142,-0.0151,-0.0152,-0.0145,-0.0158,-0.0159,-0.016,-0.0174,-0.0176,-0.0167,-0.0167,-0.0186,-0.0188,-0.019,-0.0186,-0.0196,-0.0197,-0.0198,-0.0216,-0.0216,-0.0216,0,0,0,0,0,0,-0.0137,-0.0138,-0.015,-0.0147,-0.0149,-0.0158,-0.0159,-0.0161,-0.0163,-0.0175,-0.0177,-0.0167,-0.0186,-0.0188,-0.0193,-0.0188,-0.0198,-0.0198,-0.0216,-0.0216,-0.0216,-0.0188,0,0,0,0,0,0,-0.0136,-0.0137,-0.0136,-0.0146,-0.0149,-0.0152,-0.0159,-0.0161,-0.0164,-0.0164,-0.0176,-0.0178,-0.0186,-0.0192,-0.0194,-0.0189,-0.0199,-0.0216,-0.0216,-0.0216,-0.0189,-0.0187,-0.0186,0,0,0,0,0,-0.0136,-0.0132,-0.0136,-0.0137,-0.0147,-0.0152,-0.0153,-0.016,-0.0164,-0.0163,-0.0171,-0.0177,-0.0193,-0.0193,-0.0195,-0.019,-0.0216,-0.0216,-0.0216,-0.019,-0.0188,-0.0186,0,0,0,0,0,0,-0.0126,-0.0133,-0.0138,-0.0136,-0.0142,-0.0153,-0.0152,-0.0158,-0.0165,-0.0165,-0.0177,-0.0179,-0.0183,-0.0192,-0.019,-0.0197,-0.0206,-0.0207,-0.0185,-0.0183,-0.0182,-0.0167,-0.02,0,0,0,0,0,-0.0123,-0.0123,-0.0132,-0.013,-0.0132,-0.0143,-0.0145,-0.015,-0.0157,-0.016,-0.0169,-0.0178,-0.0186,-0.0188,-0.0198,-0.0199,-0.0208,-0.0199,-0.0197,-0.0196,-0.0186,-0.0198,-0.0196,-0.0216,-0.0216,-0.0216,0,0,-0.012,-0.0123,-0.0123,-0.0128,-0.0134,-0.013,-0.0144,-0.0146,-0.014,-0.0161,-0.0158,-0.0173,-0.0186,-0.0188,-0.019,-0.0193,-0.0195,-0.0196,-0.0194,-0.0185,-0.0198,-0.0196,-0.0194,-0.0216,-0.0216,-0.0216,0,0,-0.0107,-0.0114,-0.0108,-0.0111,-0.0116,-0.0121,-0.012,-0.013,-0.0131,-0.0134,-0.0147,-0.0156,-0.017,-0.0174,-0.0179,-0.0173,-0.0187,-0.018,-0.0156,-0.0168,-0.0166,-0.0164,-0.0173,-0.0173,-0.0177,-0.0177,-0.0177,0,-0.0101,-0.0094,-0.0107,-0.01,-0.0096,-0.0114,-0.0103,-0.0108,-0.0118,-0.0114,-0.0129,-0.0147,-0.0161,-0.0156,-0.0156,-0.0167,-0.0177,-0.0162,-0.0164,-0.0163,-0.0162,-0.0172,-0.0172,-0.0175,-0.0175,-0.0176,-0.0176,0,-0.0083,-0.0077,-0.0073,-0.0068,-0.0068,-0.0062,-0.0069,-0.0067,-0.0076,-0.0083,-0.0087,-0.0111,-0.0118,-0.013,-0.0141,-0.0138,-0.0149,-0.0162,-0.0167,-0.0158,-0.0169,-0.017,-0.0173,-0.0174,-0.0174,-0.0175,0,0,-0.0061,-0.006,-0.0056,-0.0045,-0.0049,-0.0043,-0.0033,-0.0025,-0.0009,-0.0036,-0.0022,-0.0049,-0.0067,-0.0074,-0.0094,-0.0107,-0.0113,-0.0129,-0.013,-0.0132,-0.0138,-0.0141,-0.0142,-0.013,-0.0129,-0.0129,-0.0149,0,-0.0038,-0.0016,-0.0022,0.0003,0.0016,0.0008,0.002,0.0023,0.0021,0.0028,-0.0004,-0.0006,-0.0044,-0.0048,-0.0067,-0.0097,-0.0113,-0.0107,-0.0151,-0.0152,-0.0151,-0.0142,-0.0122,-0.0137,-0.0149,-0.0149,-0.0149,0,-0.001,0.0001,0.003,0.0047,0.0053,0.0064,0.0092,0.0101,0.0103,0.0099,0.0086,0.0058,0.004,-0.0,-0.0047,-0.0042,-0.0086,-0.0118,-0.012,-0.013,-0.0155,-0.0149,-0.0137,-0.022,-0.015,-0.015,-0.015,0,0.0025,0.0043,0.007,0.0075,0.0088,0.0105,0.0115,0.0126,0.0148,0.0147,0.0156,0.012,0.011,0.005,-0.0018,-0.0033,-0.0073,-0.0102,-0.0148,-0.0149,-0.0143,-0.0143,-0.021,-0.014,-0.014,-0.014,-0.014,0,0.0059,0.0082,0.009,0.0106,0.0144,0.014,0.0184,0.019,0.0208,0.0244,0.0195,0.0215,0.0121,0.0084,0.0008,-0.0061,-0.0053,-0.0136,-0.0151,-0.0133,-0.0132,-0.0213,-0.0271,-0.0141,-0.0141,-0.0141,-0.0141,0,0.0095,0.0099,0.0132,0.0151,0.0163,0.0191,0.0229,0.0263,0.0268,0.0316,0.0317,0.0291,0.0249,0.0152,0.0066,-0.0015,-0.0138,-0.012,-0.009,-0.0101,-0.0228,-0.0284,-0.0341,-0.0415,-0.0173,-0.0174,-0.0174,0,0.0115,0.0136,0.0169,0.0195,0.0206,0.0246,0.0279,0.0296,0.0337,0.0374,0.0403,0.0373,0.0373,0.024,0.0101,-0.0029,-0.0131,-0.0116,-0.0145,-0.0225,-0.0299,-0.0318,-0.0379,-0.0129,-0.0128,-0.0128,-0.0128,0,0.0155,0.0166,0.0192,0.0241,0.0281,0.0325,0.0374,0.0416,0.0449,0.0494,0.0548,0.055,0.0433,0.0324,0.0136,0.0034,-0.0176,-0.0116,-0.0206,-0.0272,-0.0289,-0.037,-0.0128,-0.0126,-0.0126,-0.0126,-0.0127,-0.0127,0.0187,0.0209,0.0244,0.029,0.0338,0.0397,0.0436,0.0503,0.0578,0.0639,0.065,0.0665,0.0498,0.0257,0.0116,-0.0143,-0.0166,-0.023,-0.0292,-0.0304,-0.0374,-0.0126,-0.0139,-0.0139,-0.0139,-0.014,-0.014,0,0.0223,0.0245,0.029,0.0343,0.0393,0.0413,0.0493,0.0535,0.0629,0.0698,0.0742,0.0662,0.0469,0.0233,-0.0094,-0.0277,-0.0362,-0.0394,-0.0425,-0.0484,-0.0261,-0.026,-0.029,-0.029,-0.029,-0.029,-0.029,-0.029,0.0244,0.0285,0.0299,0.0376,0.0415,0.0471,0.0513,0.0589,0.0647,0.07,0.0701,0.0673,0.0466,0.0022,-0.0351,-0.0458,-0.0615,-0.0609,-0.073,-0.0579,-0.0569,-0.0559,-0.057,-0.0665,-0.0665,-0.0913,-0.0916,-0.0918]}],[{"header":{"parameterUnit":"m.s-1","parameterCategory":2,"la1":30.2991,"la2":30.254,"lo1":-89.0895,"lo2":-89.0444,"dy":0.0017,"dx":0.0017,"nx":28,"ny":28,"refTime":"2023-11-16T03:00:00:Z","depth":"2","parameterNumber":2,"parameterNumberName":"U-component_of_CURRENTS"},"data":[0,0,0,0,0,0,0,0,0,0,0,0,0,0,0,0,0,0,0,0,0,0,0,0,0,0,0,0,0,0,0,0,0,0,0,0,0,0,0,0,0,0,0,0,0,0,0,0,0,0,0,0,0,0,0,0,0,0,0.1885,0.1885,0,0.1873,0.1872,0.1872,0.1846,0.1845,0.1845,0.1845,0.1816,0.1816,0.1815,0,0,0,0,0,0,0,0,0,0,0,0,0,0.1887,0.1886,0.1885,0.1885,0.1885,0.1873,0.1872,0.1872,0.1846,0.1845,0.1845,0.1845,0.1816,0.1816,0.1815,0,0,0,0,0,0,0,0,0,0,0,0,0,0.1879,0.1886,0.1885,0.1872,0.1871,0.1873,0.1872,0.1872,0.1846,0.1845,0.1845,0.1845,0.1817,0.1816,0.1815,0.182,0,0,0.1813,0.1813,0,0,0,0,0,0,0,0,0.1879,0.1878,0.1874,0.1873,0.1872,0.1863,0.1863,0.1854,0.1846,0.1853,0.1845,0.1844,0.1832,0.183,0.1825,0.1818,0.1817,0.1813,0.1812,0.1812,0.1812,0,0,0,0,0,0,0,0.188,0.1879,0.1877,0.1874,0.1873,0.1868,0.1866,0.1861,0.1843,0.1852,0.1851,0.1854,0.1831,0.1826,0.1825,0.1817,0.1813,0.1812,0.1812,0.1811,0.1836,0.1837,0,0,0,0,0,0,0.1887,0.1879,0.1878,0.1877,0.1878,0.1869,0.1866,0.1864,0.1843,0.184,0.1854,0.1853,0.1828,0.1825,0.1823,0.1845,0.1812,0.1811,0.1811,0.1835,0.1837,0.1838,0,0,0,0,0,0,0.1887,0.1887,0.1878,0.188,0.1879,0.1869,0.1867,0.1864,0.1863,0.1845,0.1842,0.1857,0.1827,0.1825,0.1828,0.1843,0.1811,0.181,0.1834,0.1836,0.1837,0.1876,0,0,0,0,0,0,0.1887,0.1887,0.189,0.1881,0.188,0.1882,0.1867,0.1864,0.1866,0.1864,0.1846,0.1843,0.1827,0.1829,0.1827,0.1841,0.181,0.1833,0.1835,0.1837,0.1873,0.1879,0.1883,0,0,0,0,0,0.1887,0.1891,0.189,0.189,0.1884,0.1883,0.1881,0.1871,0.1867,0.1868,0.1862,0.1844,0.1841,0.183,0.1827,0.1841,0.1832,0.1834,0.1836,0.1871,0.1878,0.1883,0,0,0,0,0,0,0.1892,0.1889,0.1888,0.189,0.189,0.1879,0.1881,0.1878,0.1873,0.1872,0.1855,0.1851,0.1863,0.1849,0.1837,0.1856,0.1835,0.1837,0.1862,0.1868,0.1873,0.1889,0.1809,0,0,0,0,0,0.1897,0.1899,0.1896,0.1899,0.19,0.1894,0.1894,0.1889,0.1884,0.1881,0.1872,0.1867,0.1871,0.1867,0.1866,0.1872,0.1873,0.1881,0.1886,0.1891,0.1904,0.1922,0.193,0.1846,0.1846,0.1846,0,0,0.19,0.19,0.19,0.1901,0.1899,0.1904,0.1892,0.1894,0.1903,0.188,0.1888,0.1886,0.1879,0.1889,0.1892,0.1877,0.1915,0.1894,0.1897,0.1908,0.1925,0.1933,0.1941,0.1847,0.1847,0.1847,0,0,0.1907,0.1907,0.1911,0.1914,0.1917,0.1914,0.1919,0.1915,0.1918,0.1926,0.192,0.1932,0.1923,0.1928,0.1928,0.1963,0.1945,0.1958,0.199,0.2007,0.2014,0.202,0.203,0.2037,0.1955,0.1955,0.1955,0,0.1912,0.1914,0.1913,0.192,0.1925,0.1922,0.1929,0.1935,0.1935,0.1944,0.1933,0.1951,0.1946,0.197,0.1985,0.1975,0.1977,0.1964,0.2014,0.202,0.2025,0.2034,0.2041,0.1957,0.1957,0.1957,0.1957,0,0.192,0.1925,0.1929,0.1936,0.1943,0.1947,0.1957,0.1966,0.197,0.1976,0.2002,0.2003,0.2011,0.2016,0.2011,0.2051,0.2037,0.2021,0.1997,0.2036,0.2042,0.2049,0.196,0.196,0.1959,0.1959,0,0,0.1918,0.1931,0.1932,0.1936,0.1951,0.1953,0.1977,0.1994,0.2013,0.2022,0.2049,0.2069,0.2071,0.2074,0.2072,0.2094,0.2139,0.2078,0.2078,0.2086,0.2173,0.2126,0.2128,0.2127,0.2128,0.2129,0.216,0,0.1922,0.1933,0.1942,0.1955,0.1959,0.1972,0.1996,0.2016,0.2033,0.206,0.2078,0.2101,0.2092,0.2101,0.2123,0.214,0.2158,0.2132,0.2136,0.2137,0.2088,0.2135,0.1931,0.1938,0.2166,0.2167,0.2168,0,0.1923,0.193,0.1941,0.1961,0.1965,0.1977,0.2009,0.203,0.2074,0.2095,0.2123,0.2133,0.2177,0.2159,0.2204,0.2185,0.2188,0.2196,0.2196,0.2146,0.2102,0.1937,0.1941,0.2179,0.2178,0.2177,0.2176,0,0.1908,0.1927,0.1933,0.1939,0.1965,0.1978,0.1995,0.2037,0.2061,0.2118,0.2137,0.2184,0.2204,0.2226,0.224,0.2225,0.2285,0.2258,0.2217,0.2213,0.2038,0.2016,0.2291,0.2291,0.2291,0.2291,0.2291,0,0.19,0.1904,0.1926,0.1927,0.1941,0.1969,0.1995,0.2026,0.2078,0.2109,0.2149,0.218,0.2223,0.2251,0.2261,0.2263,0.2296,0.224,0.2225,0.2045,0.2025,0.2231,0.2224,0.2292,0.2292,0.2292,0.2292,0,0.1875,0.189,0.1894,0.1921,0.193,0.1938,0.1981,0.2003,0.2059,0.21,0.2119,0.2188,0.2232,0.2259,0.2306,0.2279,0.2294,0.228,0.2068,0.2029,0.2203,0.2198,0.2241,0.224,0.2239,0.2238,0.2237,0,0.1859,0.1861,0.1879,0.1883,0.1892,0.1913,0.1931,0.1987,0.2013,0.2098,0.2113,0.2177,0.2206,0.2254,0.2229,0.223,0.2282,0.2035,0.1976,0.222,0.2202,0.2198,0.2194,0.1754,0.1749,0.1746,0.1743,0,0.1833,0.1841,0.1847,0.1851,0.1862,0.1873,0.1901,0.1918,0.1987,0.2017,0.2073,0.2108,0.2147,0.2055,0.2053,0.2029,0.2021,0.1959,0.2266,0.1807,0.1766,0.1746,0.1757,0.1709,0.1712,0.1715,0.1717,0.1718,0.1817,0.181,0.182,0.1815,0.1825,0.1825,0.1813,0.1843,0.1862,0.1868,0.1962,0.1925,0.1921,0.182,0.1761,0.1711,0.1863,0.1753,0.1762,0.1776,0.1723,0.1683,0.16,0.1603,0.1605,0.1607,0.1609,0,0.1786,0.1785,0.1785,0.1769,0.1747,0.1773,0.1782,0.1739,0.1717,0.1735,0.1737,0.156,0.1475,0.1486,0.1351,0.135,0.132,0.1291,0.1218,0.1253,0.1284,0.1203,0.0944,0.0942,0.094,0.0938,0,0,0.1775,0.1753,0.1741,0.1687,0.1678,0.1621,0.161,0.1549,0.1526,0.1446,0.1385,0.1421,0.1452,0.1178,0.1133,0.1018,0.1136,0.0978,0.1512,0.1463,0.1492,0.155,0.1465,0,0,0,0,0]},{"header":{"parameterUnit":"m.s-1","parameterCategory":2,"la1":30.2991,"la2":30.254,"lo1":-89.0895,"lo2":-89.0444,"dy":0.0017,"dx":0.0017,"nx":28,"ny":28,"refTime":"2023-11-16T03:00:00:Z","depth":"2","parameterNumber":3,"parameterNumberName":"V-component_of_CURRENTS"},"data":[0,0,0,0,0,0,0,0,0,0,0,0,0,0,0,0,0,0,0,0,0,0,0,0,0,0,0,0,0,0,0,0,0,0,0,0,0,0,0,0,0,0,0,0,0,0,0,0,0,0,0,0,0,0,0,0,0,0,-0.0023,-0.0023,0,-0.0045,-0.0045,-0.0046,-0.0063,-0.0063,-0.0063,-0.0064,-0.0089,-0.0089,-0.009,0,0,0,0,0,0,0,0,0,0,0,0,0,-0.0011,-0.0011,-0.0023,-0.0023,-0.0024,-0.0045,-0.0045,-0.0046,-0.0063,-0.0063,-0.0063,-0.0064,-0.0089,-0.0089,-0.009,0,0,0,0,0,0,0,0,0,0,0,0,0,-0.0023,-0.0011,-0.0023,-0.0034,-0.0036,-0.0045,-0.0045,-0.0046,-0.0063,-0.0063,-0.0063,-0.0064,-0.0088,-0.0089,-0.009,-0.0091,0,0,-0.0092,-0.0093,0,0,0,0,0,0,0,0,-0.0022,-0.0024,-0.0033,-0.0034,-0.0035,-0.0051,-0.005,-0.0061,-0.0063,-0.0053,-0.0064,-0.0064,-0.0076,-0.0078,-0.0082,-0.0092,-0.0094,-0.0093,-0.0093,-0.0093,-0.0094,0,0,0,0,0,0,0,-0.0022,-0.0023,-0.0032,-0.0033,-0.0034,-0.0043,-0.0045,-0.0052,-0.0064,-0.0054,-0.0055,-0.0057,-0.0077,-0.0081,-0.0083,-0.0094,-0.0093,-0.0093,-0.0094,-0.0094,-0.0112,-0.0112,0,0,0,0,0,0,-0.0017,-0.0022,-0.0032,-0.0033,-0.0028,-0.0043,-0.0045,-0.0046,-0.0064,-0.0066,-0.0057,-0.0057,-0.008,-0.0082,-0.0084,-0.0084,-0.0093,-0.0094,-0.0095,-0.0112,-0.0112,-0.0112,0,0,0,0,0,0,-0.0016,-0.0017,-0.0031,-0.0028,-0.003,-0.0043,-0.0044,-0.0046,-0.0053,-0.0065,-0.0068,-0.0061,-0.008,-0.0083,-0.0089,-0.0085,-0.0095,-0.0095,-0.0112,-0.0112,-0.0112,-0.0086,0,0,0,0,0,0,-0.0016,-0.0017,-0.0018,-0.0027,-0.003,-0.0033,-0.0044,-0.0047,-0.0053,-0.0055,-0.007,-0.0072,-0.008,-0.0088,-0.009,-0.0086,-0.0096,-0.0112,-0.0112,-0.0112,-0.0087,-0.0085,-0.0083,0,0,0,0,0,-0.0015,-0.0011,-0.0017,-0.0019,-0.0029,-0.0033,-0.0035,-0.0046,-0.0053,-0.0053,-0.0064,-0.0072,-0.0089,-0.0088,-0.0091,-0.0088,-0.0112,-0.0112,-0.0112,-0.0087,-0.0085,-0.0083,0,0,0,0,0,0,-0.0006,-0.0013,-0.002,-0.0019,-0.0025,-0.0036,-0.0037,-0.0046,-0.0055,-0.0058,-0.0071,-0.0073,-0.0079,-0.0088,-0.0086,-0.0094,-0.0103,-0.0103,-0.0083,-0.0081,-0.0079,-0.0065,-0.0097,0,0,0,0,0,-0.0004,-0.0004,-0.0013,-0.0012,-0.0015,-0.0027,-0.0031,-0.0038,-0.0047,-0.0051,-0.0062,-0.0073,-0.0081,-0.0084,-0.0093,-0.0095,-0.0103,-0.0096,-0.0094,-0.0092,-0.0083,-0.0095,-0.0093,-0.0112,-0.0112,-0.0112,0,0,-0.0001,-0.0004,-0.0005,-0.001,-0.0018,-0.0014,-0.003,-0.0034,-0.0029,-0.0052,-0.0052,-0.0069,-0.0081,-0.0083,-0.0087,-0.0089,-0.0092,-0.0092,-0.0091,-0.0083,-0.0095,-0.0093,-0.0091,-0.0112,-0.0112,-0.0112,0,0,0.0011,0.0002,0.0008,0.0005,-0.0002,-0.0007,-0.0008,-0.0019,-0.0023,-0.0027,-0.0041,-0.0052,-0.0067,-0.0071,-0.0075,-0.0069,-0.0085,-0.0078,-0.0054,-0.0066,-0.0064,-0.0063,-0.0073,-0.0072,-0.0074,-0.0074,-0.0074,0,0.0015,0.0022,0.0009,0.0016,0.0019,-0.0002,0.0009,0.0004,-0.0009,-0.0006,-0.0024,-0.0044,-0.0058,-0.0052,-0.0053,-0.0064,-0.0074,-0.006,-0.0063,-0.0062,-0.0061,-0.0071,-0.0071,-0.0073,-0.0073,-0.0073,-0.0074,0,0.0033,0.0038,0.0042,0.0045,0.0046,0.005,0.0044,0.0043,0.0031,0.0024,0.0017,-0.0007,-0.0016,-0.0027,-0.0039,-0.0037,-0.0048,-0.0061,-0.0066,-0.0057,-0.0069,-0.0069,-0.0071,-0.0072,-0.0072,-0.0072,0,0,0.0052,0.0055,0.0058,0.0067,0.0063,0.0069,0.0078,0.0085,0.0099,0.007,0.0083,0.0055,0.0034,0.0028,0.0007,-0.0005,-0.0014,-0.0029,-0.003,-0.0033,-0.004,-0.0044,-0.0046,-0.003,-0.003,-0.003,-0.0051,0,0.0073,0.0095,0.0091,0.0114,0.0127,0.0118,0.0131,0.0132,0.0128,0.0133,0.0102,0.0097,0.0058,0.0051,0.0032,0.0003,-0.0013,-0.0007,-0.0051,-0.0052,-0.0054,-0.0045,-0.0012,-0.0027,-0.0051,-0.0051,-0.0051,0,0.01,0.0111,0.0139,0.0156,0.0161,0.0172,0.0197,0.0207,0.0207,0.0201,0.0186,0.0158,0.0139,0.0098,0.0051,0.0055,0.0011,-0.002,-0.0022,-0.0033,-0.0057,-0.004,-0.0027,-0.0052,-0.0052,-0.0052,-0.0052,0,0.0131,0.0149,0.0175,0.018,0.0193,0.0208,0.0217,0.0228,0.0249,0.0246,0.0253,0.0217,0.0205,0.0145,0.0076,0.0062,0.0022,-0.0005,-0.0052,-0.0053,-0.0035,-0.0034,-0.0043,-0.0043,-0.0043,-0.0043,-0.0043,0,0.0163,0.0183,0.0191,0.0206,0.0242,0.0239,0.028,0.0286,0.0303,0.0339,0.0288,0.0307,0.0215,0.0177,0.0102,0.0032,0.004,-0.0041,-0.0056,-0.0025,-0.0024,-0.0055,-0.0056,-0.0044,-0.0044,-0.0044,-0.0044,0,0.0194,0.0198,0.0229,0.0247,0.0258,0.0284,0.0321,0.0354,0.0358,0.0405,0.0404,0.0379,0.0335,0.024,0.0155,0.0076,0.0003,-0.0028,0.0015,0.0005,-0.0074,-0.0073,-0.0082,-0.0082,-0.0082,-0.0083,-0.0083,0,0.0211,0.023,0.0262,0.0286,0.0296,0.0333,0.0365,0.0383,0.0424,0.0459,0.0489,0.0456,0.0453,0.0322,0.0189,0.0061,0.0022,-0.0013,-0.0038,-0.0062,-0.0076,-0.0075,-0.0075,-0.0005,-0.0005,-0.0004,-0.0004,0,0.0247,0.0256,0.0281,0.0327,0.0365,0.041,0.0457,0.0498,0.0532,0.0574,0.0626,0.0625,0.0511,0.0403,0.0218,0.0129,0.0009,-0.001,-0.0037,-0.0002,0.0008,-0.0005,-0.0007,-0.0001,-0.0001,-0.0001,-0.0001,-0.0002,0.0275,0.0296,0.0329,0.0371,0.0418,0.0478,0.0516,0.0584,0.0657,0.0713,0.0721,0.0715,0.0593,0.0366,0.0225,0.0053,0.0046,-0.0027,-0.0027,-0.0028,-0.0017,-0.0008,-0.0017,-0.0018,-0.0018,-0.0019,-0.0019,0,0.031,0.0329,0.0371,0.0422,0.0473,0.0489,0.0571,0.0622,0.0716,0.076,0.0796,0.069,0.0576,0.0414,0.0179,0.0038,0.0027,-0.0018,0.0003,0.0002,-0.0,0.0012,0.0019,0.0019,0.0018,0.0018,0,0,0.033,0.0369,0.0382,0.0457,0.0492,0.0561,0.0603,0.0693,0.0742,0.0794,0.0784,0.0768,0.0605,0.0439,0.0271,0.0138,0.0091,0.0108,0.0095,0.0138,0.0137,0.0016,0.0036,0,0,0,0,0]}],[{"header":{"parameterUnit":"m.s-1","parameterCategory":2,"la1":30.2991,"la2":30.254,"lo1":-89.0895,"lo2":-89.0444,"dy":0.0017,"dx":0.0017,"nx":28,"ny":28,"refTime":"2023-11-16T03:00:00:Z","depth":"4","parameterNumber":2,"parameterNumberName":"U-component_of_CURRENTS"},"data":[0,0,0,0,0,0,0,0,0,0,0,0,0,0,0,0,0,0,0,0,0,0,0,0,0,0,0,0,0,0,0,0,0,0,0,0,0,0,0,0,0,0,0,0,0,0,0,0,0,0,0,0,0,0,0,0,0,0,0.1105,0.1106,0,0.113,0.113,0.113,0.1157,0.1158,0.1158,0.1159,0.1197,0.1197,0.1198,0,0,0,0,0,0,0,0,0,0,0,0,0,0.1074,0.1074,0.1105,0.1106,0.1106,0.113,0.113,0.113,0.1157,0.1158,0.1158,0.1159,0.1197,0.1197,0.1198,0,0,0,0,0,0,0,0,0,0,0,0,0,0.1089,0.1074,0.1105,0.1124,0.1127,0.113,0.113,0.113,0.1157,0.1158,0.1159,0.1159,0.1197,0.1197,0.1198,0.1184,0,0,0.12,0.12,0,0,0,0,0,0,0,0,0.1089,0.109,0.1121,0.1123,0.1126,0.1143,0.1133,0.1149,0.1157,0.1143,0.1159,0.116,0.1181,0.1183,0.1182,0.1186,0.1187,0.12,0.12,0.1201,0.1201,0,0,0,0,0,0,0,0.1087,0.1089,0.1113,0.1122,0.1124,0.1129,0.1132,0.1136,0.1155,0.1144,0.1147,0.1153,0.1182,0.1181,0.1183,0.1188,0.12,0.1201,0.1201,0.1201,0.1261,0.1262,0,0,0,0,0,0,0.1088,0.1088,0.1112,0.1114,0.1111,0.1129,0.1132,0.1135,0.1155,0.1159,0.1152,0.1154,0.118,0.1183,0.1185,0.1239,0.1201,0.1201,0.1202,0.126,0.1261,0.1263,0,0,0,0,0,0,0.1088,0.109,0.1111,0.1104,0.1107,0.1129,0.1131,0.1135,0.1161,0.1161,0.1166,0.1178,0.1181,0.1184,0.1213,0.1238,0.1202,0.1202,0.1259,0.126,0.1262,0.1302,0,0,0,0,0,0,0.1086,0.1089,0.1104,0.1104,0.1108,0.1129,0.1131,0.1135,0.1163,0.1166,0.1184,0.1187,0.1182,0.1212,0.1214,0.1238,0.1203,0.1257,0.1259,0.1261,0.1299,0.1305,0.131,0,0,0,0,0,0.1085,0.1095,0.1104,0.1108,0.1122,0.113,0.1132,0.1149,0.1163,0.1176,0.1193,0.1188,0.1227,0.1213,0.1215,0.124,0.1256,0.1259,0.1261,0.1297,0.1304,0.131,0,0,0,0,0,0,0.1091,0.1099,0.1109,0.1123,0.1135,0.1136,0.1153,0.1164,0.1186,0.1198,0.1199,0.1203,0.1239,0.1234,0.1219,0.1265,0.1242,0.1245,0.1269,0.1275,0.128,0.1295,0.1203,0,0,0,0,0,0.1098,0.1109,0.1117,0.1132,0.114,0.1152,0.1164,0.1174,0.1188,0.12,0.1214,0.1231,0.1245,0.1258,0.1267,0.1289,0.1292,0.1309,0.1314,0.1318,0.1332,0.135,0.1359,0.1271,0.1271,0.1271,0,0,0.1106,0.1113,0.1121,0.1135,0.1147,0.1161,0.1162,0.1185,0.1205,0.12,0.1242,0.1251,0.1256,0.1283,0.1299,0.1287,0.1346,0.1322,0.1326,0.1337,0.1354,0.1363,0.137,0.1273,0.1273,0.1273,0,0,0.1118,0.1134,0.1146,0.1158,0.1181,0.1185,0.1198,0.1215,0.1236,0.1268,0.1273,0.1303,0.1322,0.1333,0.1338,0.138,0.1373,0.1385,0.1423,0.144,0.1448,0.1454,0.147,0.1477,0.1387,0.1387,0.1387,0,0.1133,0.1144,0.1153,0.1168,0.1183,0.1199,0.1217,0.1235,0.1264,0.1284,0.1291,0.1338,0.1347,0.1377,0.1399,0.1393,0.1401,0.1396,0.1447,0.1454,0.1459,0.1474,0.1481,0.1389,0.1389,0.1389,0.1388,0,0.1145,0.1166,0.1176,0.1199,0.1216,0.1235,0.1256,0.1285,0.1314,0.1331,0.138,0.1394,0.1422,0.1431,0.1432,0.1479,0.147,0.1451,0.1429,0.1471,0.1483,0.149,0.1392,0.1391,0.1391,0.139,0,0,0.1144,0.1178,0.1186,0.1202,0.1235,0.1245,0.1287,0.132,0.1353,0.139,0.1432,0.147,0.1486,0.1495,0.1499,0.1523,0.1576,0.1515,0.1515,0.1528,0.1619,0.1506,0.1502,0.1564,0.1566,0.1567,0.1611,0,0.1156,0.1185,0.1202,0.1237,0.1252,0.1282,0.1316,0.1352,0.1389,0.1433,0.1464,0.1504,0.1505,0.1529,0.1554,0.1572,0.1598,0.1566,0.158,0.1581,0.1472,0.1508,0.1572,0.1616,0.1618,0.1619,0.162,0,0.1158,0.1178,0.1215,0.1253,0.1265,0.1293,0.1349,0.1382,0.1443,0.1475,0.1522,0.1543,0.1599,0.1587,0.1643,0.1624,0.1635,0.1643,0.1644,0.1531,0.148,0.1567,0.1633,0.1632,0.1631,0.163,0.163,0,0.1141,0.1185,0.1215,0.123,0.1277,0.131,0.1344,0.1403,0.1437,0.1512,0.1543,0.1597,0.1636,0.1661,0.1687,0.1673,0.1737,0.1709,0.1616,0.1608,0.1679,0.1672,0.1748,0.1748,0.1748,0.1748,0.1748,0,0.1128,0.1155,0.1215,0.1229,0.127,0.1312,0.1366,0.1408,0.1474,0.151,0.1569,0.1598,0.166,0.1694,0.1707,0.1683,0.1751,0.1634,0.1613,0.1695,0.1689,0.1684,0.1676,0.175,0.1749,0.1749,0.1749,0,0.1097,0.1138,0.1174,0.1239,0.1263,0.1296,0.1371,0.1402,0.1475,0.1526,0.1554,0.1623,0.1663,0.1702,0.1748,0.1695,0.1692,0.1667,0.1766,0.1749,0.1549,0.1542,0.1562,0.1558,0.1555,0.1552,0.155,0,0.1078,0.1097,0.1175,0.1201,0.1236,0.1293,0.1326,0.14,0.1427,0.1522,0.1532,0.1604,0.1638,0.1608,0.1662,0.1665,0.1644,0.1627,0.1578,0.1552,0.1531,0.1529,0.1527,0.1545,0.1544,0.1544,0.1543,0,0.1043,0.1087,0.112,0.1172,0.1216,0.1247,0.1301,0.1309,0.1387,0.1466,0.1469,0.1479,0.1518,0.1537,0.1551,0.1551,0.1627,0.1595,0.1601,0.1554,0.1533,0.1514,0.1516,0.1532,0.1534,0.1535,0.1535,0,0.1027,0.1041,0.1094,0.1126,0.1178,0.1181,0.1216,0.1235,0.1265,0.1356,0.1359,0.143,0.1505,0.148,0.1496,0.1483,0.1454,0.1394,0.141,0.1422,0.1354,0.1304,0.1224,0,0,0,0,0,0.1001,0.1007,0.1039,0.1061,0.1105,0.1128,0.1185,0.1218,0.1289,0.1254,0.1298,0.1322,0.1329,0.1369,0.1327,0.1442,0.1469,0.1386,0.1411,0.1473,0.1486,0.1417,0,0,0,0,0,0,0.0984,0.1018,0.1017,0.0997,0.0998,0.1026,0.1058,0.1107,0.1086,0.1167,0.1178,0.1238,0.127,0.134,0.1301,0.1313,0.1298,0.1434,0.143,0.1466,0.1477,0.1487,0.1421,0,0,0,0,0]},{"header":{"parameterUnit":"m.s-1","parameterCategory":2,"la1":30.2991,"la2":30.254,"lo1":-89.0895,"lo2":-89.0444,"dy":0.0017,"dx":0.0017,"nx":28,"ny":28,"refTime":"2023-11-16T03:00:00:Z","depth":"4","parameterNumber":3,"parameterNumberName":"V-component_of_CURRENTS"},"data":[0,0,0,0,0,0,0,0,0,0,0,0,0,0,0,0,0,0,0,0,0,0,0,0,0,0,0,0,0,0,0,0,0,0,0,0,0,0,0,0,0,0,0,0,0,0,0,0,0,0,0,0,0,0,0,0,0,0,0.0166,0.0166,0,0.0154,0.0154,0.0154,0.0142,0.0142,0.0141,0.0141,0.0134,0.0134,0.0134,0,0,0,0,0,0,0,0,0,0,0,0,0,0.0165,0.0165,0.0166,0.0166,0.0166,0.0154,0.0154,0.0154,0.0142,0.0142,0.0141,0.0141,0.0134,0.0134,0.0134,0,0,0,0,0,0,0,0,0,0,0,0,0,0.0161,0.0165,0.0166,0.0158,0.0157,0.0154,0.0154,0.0154,0.0142,0.0142,0.0141,0.0141,0.0134,0.0134,0.0134,0.0139,0,0,0.0134,0.0134,0,0,0,0,0,0,0,0,0.0161,0.0161,0.0159,0.0159,0.0158,0.0149,0.0151,0.0149,0.0142,0.0148,0.0141,0.0141,0.014,0.0139,0.0138,0.0139,0.0139,0.0134,0.0134,0.0134,0.0134,0,0,0,0,0,0,0,0.0161,0.0161,0.0161,0.0159,0.0158,0.0151,0.015,0.0151,0.0146,0.0147,0.0146,0.0145,0.0139,0.0138,0.0138,0.0139,0.0134,0.0134,0.0134,0.0134,0.0142,0.0142,0,0,0,0,0,0,0.0164,0.0162,0.0162,0.0161,0.0159,0.0151,0.015,0.0152,0.0145,0.0144,0.0145,0.0144,0.0138,0.0138,0.0137,0.0151,0.0134,0.0134,0.0134,0.0142,0.0142,0.0142,0,0,0,0,0,0,0.0164,0.0164,0.0162,0.0161,0.016,0.0152,0.0154,0.0152,0.0151,0.0144,0.0143,0.0145,0.0138,0.0137,0.0142,0.015,0.0134,0.0134,0.0142,0.0142,0.0142,0.0173,0,0,0,0,0,0,0.0164,0.0164,0.0169,0.0161,0.016,0.0164,0.0154,0.0152,0.015,0.0149,0.0144,0.0143,0.0138,0.0142,0.0142,0.015,0.0134,0.0141,0.0142,0.0142,0.0172,0.0175,0.0177,0,0,0,0,0,0.0164,0.0173,0.0169,0.0169,0.0166,0.0165,0.0164,0.0156,0.015,0.0153,0.015,0.0143,0.0145,0.0143,0.0142,0.015,0.0141,0.0142,0.0142,0.0171,0.0174,0.0177,0,0,0,0,0,0,0.0176,0.0173,0.0168,0.0176,0.0171,0.0163,0.0166,0.0159,0.0158,0.0157,0.0149,0.0148,0.0154,0.0148,0.0146,0.0153,0.014,0.0141,0.0162,0.0165,0.0168,0.0174,0.0134,0,0,0,0,0,0.0181,0.0187,0.0179,0.0186,0.0184,0.0175,0.0174,0.0168,0.0164,0.0163,0.016,0.0156,0.0156,0.0157,0.0155,0.0163,0.0147,0.0166,0.0168,0.017,0.0174,0.0159,0.0161,0.0144,0.0144,0.0144,0,0,0.0188,0.0186,0.0189,0.0189,0.0185,0.0189,0.0174,0.0174,0.018,0.0164,0.0174,0.0166,0.016,0.0167,0.0169,0.0163,0.0166,0.0171,0.0173,0.0176,0.016,0.0162,0.0163,0.0144,0.0144,0.0144,0,0,0.0203,0.0202,0.021,0.0209,0.0205,0.0201,0.0202,0.0194,0.0195,0.02,0.019,0.0189,0.0188,0.0187,0.0186,0.0201,0.0179,0.0197,0.0217,0.0202,0.0204,0.0205,0.0183,0.0182,0.0199,0.0199,0.0199,0,0.0211,0.022,0.0213,0.0219,0.0223,0.0208,0.0218,0.0217,0.0213,0.0218,0.0208,0.0205,0.02,0.0209,0.0213,0.0208,0.0191,0.0208,0.0206,0.0207,0.0207,0.0185,0.0183,0.0201,0.0201,0.02,0.02,0,0.0229,0.0238,0.0243,0.0248,0.0251,0.0257,0.0254,0.0258,0.0254,0.0251,0.0255,0.0244,0.0242,0.0239,0.0232,0.0235,0.0218,0.021,0.0199,0.0211,0.0187,0.0184,0.0203,0.0202,0.0202,0.0202,0,0,0.0245,0.0254,0.0257,0.0266,0.0267,0.0273,0.0286,0.0294,0.0306,0.0295,0.0306,0.03,0.0287,0.0284,0.0271,0.0259,0.0246,0.0238,0.0236,0.0219,0.0206,0.0192,0.0188,0.0235,0.0235,0.0235,0.0186,0,0.0262,0.0282,0.0284,0.0307,0.0316,0.0313,0.0329,0.0334,0.0336,0.0343,0.0325,0.0329,0.0306,0.0305,0.0289,0.0261,0.0242,0.026,0.0196,0.0194,0.0182,0.0186,0.0235,0.0185,0.0184,0.0184,0.0183,0,0.028,0.0291,0.0316,0.0337,0.0342,0.0355,0.0378,0.0391,0.0396,0.0396,0.039,0.0372,0.0358,0.0333,0.0284,0.0295,0.0253,0.0225,0.0222,0.0198,0.0177,0.0171,0.0179,0.0179,0.0179,0.018,0.018,0,0.0295,0.0317,0.0339,0.0345,0.0364,0.038,0.0393,0.0408,0.0427,0.043,0.0436,0.0411,0.04,0.0348,0.0288,0.0284,0.0226,0.0214,0.0159,0.0157,0.017,0.0169,0.0172,0.0172,0.0173,0.0173,0.0173,0,0.031,0.033,0.0349,0.0361,0.0393,0.0401,0.0439,0.0447,0.0466,0.049,0.0464,0.0468,0.0403,0.0361,0.0298,0.0223,0.0231,0.0162,0.0145,0.0183,0.0184,0.0167,0.0168,0.0171,0.0171,0.0172,0.0172,0,0.032,0.0333,0.0361,0.0388,0.0401,0.0424,0.0468,0.0494,0.0506,0.0535,0.0536,0.0511,0.0459,0.0385,0.0303,0.0241,0.0169,0.0137,0.0181,0.0167,0.0104,0.0106,0.0071,0.007,0.0069,0.0069,0.0068,0,0.0326,0.0342,0.0381,0.0402,0.0417,0.0455,0.0485,0.0513,0.0541,0.0562,0.0573,0.0535,0.0506,0.0379,0.03,0.0175,0.0154,0.0106,0.0104,0.0107,0.0094,0.0098,0.0101,0.0067,0.0067,0.0067,0.0067,0,0.0338,0.0354,0.0377,0.0419,0.0455,0.0497,0.0539,0.0561,0.0594,0.0604,0.0598,0.0537,0.0477,0.038,0.0283,0.0194,0.0134,0.0098,0.0098,0.0097,0.0102,0.0091,0.0095,0.0064,0.0064,0.0065,0.0065,0,0.035,0.0365,0.0398,0.0434,0.0481,0.0523,0.0547,0.0575,0.0602,0.0618,0.0616,0.0553,0.0521,0.039,0.0304,0.0213,0.0184,0.0141,0.0138,0.014,0.0174,0.0192,0.0168,0,0,0,0,0,0.0359,0.0376,0.041,0.045,0.0497,0.0524,0.0576,0.0597,0.0626,0.0622,0.0619,0.0561,0.0439,0.0394,0.03,0.0284,0.0166,0.0168,0.0113,0.005,0.0053,0.008,0,0,0,0,0,0,0.0365,0.0396,0.0407,0.0458,0.0486,0.0541,0.0575,0.0596,0.0592,0.0606,0.0546,0.0521,0.0407,0.0491,0.0292,0.0267,0.0214,0.0117,0.0114,0.0049,0.0051,0.0054,0.0082,0,0,0,0,0]}]]